FW4613 Weather Reports


time (UTC)temp
F
wind
direction
speed
knots
gust
knots
rain 1hr
in
rain 24hr
in
rain mn
in
humidity
%
barometer
mb
20260506222045 69 68 0.0 7.8 0.00 0.19 0.02 82 1008.9
20260506221524 68 32 1.7 7.8 0.00 0.19 0.02 83 1008.8
20260506221045 67 67 1.7 7.0 0.00 0.19 0.02 83 1008.8
20260506220525 67 46 0.0 12.2 0.00 0.19 0.02 83 1009.1
20260506220058 67 72 2.6 12.2 0.00 0.19 0.02 83 1009.1
20260506215539 67 70 1.7 9.6 0.00 0.19 0.02 83 1009.1
20260506215018 67 63 1.7 8.7 0.00 0.19 0.02 83 1009.1
20260506214559 67 59 0.9 8.7 0.00 0.19 0.02 83 1009.0
20260506214034 67 50 2.6 10.4 0.00 0.19 0.02 83 1008.9
20260506213515 67 65 0.9 10.4 0.00 0.19 0.02 84 1009.1
20260506213056 67 56 0.9 6.1 0.00 0.19 0.02 83 1009.0
20260506212534 67 65 0.9 5.2 0.00 0.19 0.02 84 1008.8
20260506212012 67 69 0.9 7.0 0.00 0.19 0.02 84 1008.7
20260506211552 66 29 1.7 7.8 0.00 0.19 0.02 84 1008.8
20260506211031 66 47 3.5 7.8 0.00 0.19 0.02 84 1008.8
20260506210511 66 53 2.6 7.0 0.00 0.19 0.02 84 1008.8
20260506210046 66 63 1.7 7.0 0.00 0.19 0.02 85 1008.8
20260506205523 66 53 0.0 7.0 0.00 0.19 0.02 85 1008.8
20260506205005 66 56 1.7 5.2 0.00 0.19 0.02 85 1008.8
20260506204542 66 93 0.0 7.0 0.00 0.19 0.02 86 1008.8
20260506204023 66 54 1.7 8.7 0.00 0.19 0.02 85 1008.8
20260506203557 66 25 3.5 8.7 0.00 0.19 0.02 84 1008.7
20260506203034 66 69 1.7 8.7 0.00 0.19 0.02 85 1008.7
20260506202513 66 21 0.9 8.7 0.00 0.19 0.02 85 1008.7
20260506202046 66 73 0.0 9.6 0.00 0.19 0.02 86 1008.6
20260506201514 65 64 0.0 9.6 0.00 0.19 0.02 86 1008.7
20260506201045 65 84 1.7 10.4 0.00 0.19 0.02 86 1008.8
20260506200534 65 11 0.9 10.4 0.00 0.19 0.02 86 1008.7
20260506200049 65 58 1.7 12.2 0.00 0.19 0.02 86 1008.7
20260506195529 65 32 4.3 12.2 0.00 0.19 0.02 86 1008.9
20260506195016 65 41 1.7 13.0 0.00 0.19 0.02 86 1008.9
20260506194550 65 65 3.5 13.0 0.00 0.19 0.02 86 1008.9
20260506194026 64 188 0.9 7.0 0.00 0.19 0.02 88 1008.9
20260506193555 64 58 0.0 8.7 0.00 0.19 0.02 89 1009.0
20260506193044 64 77 1.7 7.8 0.00 0.19 0.02 89 1009.1
20260506192510 63 86 1.7 10.4 0.00 0.19 0.02 89 1009.3
20260506192043 63 59 2.6 13.0 0.00 0.19 0.02 88 1009.2
20260506191605 63 75 4.3 13.0 0.00 0.19 0.02 89 1009.2
20260506191508 63 49 4.3 13.0 0.00 0.19 0.02 89 1009.2
20260506191033 63 4 1.7 9.6 0.00 0.19 0.02 90 1009.3
20260506190513 63 94 1.7 8.7 0.00 0.19 0.02 91 1009.3
20260506190033 62 1 2.6 7.8 0.00 0.19 0.02 91 1009.4
20260506185507 62 63 0.0 7.8 0.00 0.19 0.02 92 1009.2
20260506185043 62 54 1.7 8.7 0.00 0.19 0.02 92 1009.3
20260506184604 62 53 1.7 9.6 0.00 0.19 0.02 92 1009.3
20260506184503 62 48 1.7 10.4 0.00 0.19 0.02 92 1009.3
20260506184025 62 39 0.9 13.0 0.00 0.19 0.02 91 1009.6
20260506183508 62 65 3.5 13.0 0.00 0.19 0.02 91 1009.5
20260506183041 62 76 1.7 11.3 0.00 0.19 0.02 91 1009.6
20260506182515 62 55 1.7 8.7 0.00 0.19 0.02 91 1009.6
20260506182051 62 72 2.6 9.6 0.00 0.19 0.02 90 1009.6
20260506181533 62 44 1.7 9.6 0.00 0.19 0.02 90 1009.6
20260506181047 62 62 1.7 12.2 0.00 0.19 0.02 90 1009.6
20260506180528 62 22 2.6 10.4 0.00 0.19 0.02 90 1009.6
20260506180012 62 61 4.3 10.4 0.00 0.19 0.02 91 1009.6
20260506175539 62 58 0.9 9.6 0.00 0.19 0.02 91 1009.6
20260506175017 62 77 0.9 9.6 0.00 0.19 0.02 91 1009.7
20260506174555 62 76 1.7 9.6 0.00 0.19 0.02 91 1009.6
20260506174016 62 108 2.6 10.4 0.00 0.19 0.02 92 1009.8
20260506173545 62 59 0.0 10.4 0.00 0.19 0.02 92 1009.7
20260506173048 62 78 0.9 9.6 0.00 0.19 0.02 92 1009.4
20260506172557 62 72 0.0 9.6 0.01 0.19 0.02 93 1009.4
20260506172034 61 89 0.9 10.4 0.01 0.19 0.02 93 1009.7
20260506171516 61 56 0.0 7.0 0.01 0.19 0.02 93 1010.0
20260506171035 61 46 1.7 7.8 0.01 0.19 0.02 93 1009.9
20260506170509 61 65 1.7 7.8 0.02 0.19 0.02 93 1009.9
20260506165559 61 69 0.0 6.1 0.03 0.19 0.02 93 1009.9
20260506165508 62 65 0.0 6.1 0.03 0.19 0.02 93 1009.9
20260506165035 62 66 0.0 7.0 0.03 0.19 0.02 93 1009.9
20260506164511 62 65 0.9 3.5 0.04 0.19 0.02 93 1009.9
20260506164038 62 82 0.0 2.6 0.05 0.19 0.02 94 1009.9
20260506163511 62 96 0.0 2.6 0.07 0.19 0.02 95 1009.9
20260506163056 62 57 0.9 2.6 0.08 0.19 0.02 94 1009.9
20260506162512 61 78 0.0 4.3 0.08 0.18 0.01 95 1009.7
20260506162045 61 65 0.0 4.3 0.09 0.18 0.01 94 1009.7
20260506161520 61 103 0.0 3.5 0.11 0.18 0.01 94 1010.1
20260506161055 61 117 0.0 5.2 0.11 0.18 0.01 94 1010.2
20260506160535 61 83 0.0 6.1 0.11 0.17 0.17 94 1010.6
20260506160011 61 63 0.0 6.1 0.12 0.17 0.17 93 1010.9
20260506155544 61 129 0.0 3.5 0.11 0.16 0.16 93 1011.0
20260506155017 61 65 0.0 3.5 0.11 0.16 0.16 93 1011.2
20260506154604 61 142 0.0 3.5 0.11 0.15 0.15 93 1011.1
20260506154027 61 58 0.0 3.5 0.10 0.14 0.14 92 1011.1
20260506153508 61 64 0.0 3.5 0.09 0.12 0.12 92 1011.3
20260506153042 61 67 0.0 6.1 0.09 0.11 0.11 91 1011.2
20260506152558 61 84 0.9 6.1 0.09 0.10 0.10 91 1011.1
20260506152508 61 84 0.9 6.1 0.09 0.10 0.10 91 1011.1
20260506152043 62 110 0.0 1.7 0.09 0.09 0.09 90 1011.2
20260506151601 62 68 0.0 5.2 0.07 0.07 0.08 90 1011.3
20260506151506 62 63 0.0 5.2 0.07 0.07 0.07 90 1011.3
20260506151043 62 349 0.0 5.2 0.06 0.06 0.07 90 1011.2
20260506150600 62 99 0.0 4.3 0.06 0.06 0.06 90 1011.1
20260506150501 62 70 0.0 4.3 0.06 0.06 0.06 90 1011.1
20260506150023 62 72 0.0 4.3 0.05 0.05 0.05 90 1011.1
20260506145559 62 75 0.0 4.3 0.05 0.05 0.05 90 1011.1
20260506145501 62 75 0.0 4.3 0.05 0.05 0.05 90 1011.1
20260506145024 62 77 0.0 0.9 0.05 0.05 0.05 90 1011.0
20260506144502 62 66 0.0 1.7 0.04 0.04 0.04 89 1010.7
20260506144026 63 150 0.0 3.5 0.04 0.04 0.04 88 1010.8
20260506143504 63 71 0.0 7.8 0.03 0.03 0.03 86 1010.9
20260506143027 63 77 0.0 7.8 0.02 0.02 0.02 85 1011.0
20260506142601 64 39 0.9 7.8 0.01 0.01 0.01 84 1011.1
20260506142504 64 52 0.0 7.8 0.01 0.01 0.01 84 1011.1
20260506142024 64 76 0.0 7.8 0.00 0.00 0.00 82 1011.1
20260506141504 65 120 2.6 7.8 0.00 0.00 0.00 81 1011.0
20260506141019 65 60 0.0 9.6 0.00 0.00 0.00 81 1011.0
20260506140540 65 69 1.7 10.4 0.00 0.00 0.00 79 1011.0
20260506140019 66 92 3.5 10.4 0.00 0.00 0.00 77 1010.9
20260506135538 67 67 2.6 7.0 0.00 0.00 0.00 77 1010.6
20260506135016 67 122 0.9 6.1 0.00 0.00 0.00 78 1010.7
20260506134536 67 75 0.9 7.0 0.00 0.00 0.00 78 1010.6
20260506134056 67 56 0.9 11.3 0.00 0.00 0.00 77 1010.6
20260506133532 66 18 2.6 11.3 0.00 0.00 0.00 77 1010.8
20260506133012 66 25 1.7 10.4 0.00 0.00 0.00 78 1011.0
20260506132534 66 55 0.9 7.8 0.00 0.00 0.00 78 1010.9
20260506132053 66 72 0.0 3.5 0.00 0.00 0.00 78 1010.9
20260506131528 66 70 0.0 6.1 0.00 0.00 0.00 78 1010.9
20260506131011 66 30 0.0 7.8 0.00 0.00 0.00 78 1011.0
20260506130533 66 73 0.0 13.0 0.00 0.00 0.00 77 1011.1
20260506130006 66 68 1.7 14.8 0.00 0.00 0.00 76 1011.2
20260506125530 66 86 3.5 14.8 0.00 0.00 0.00 76 1011.3
20260506125042 66 86 2.6 11.3 0.00 0.00 0.00 76 1011.4
20260506124524 66 336 3.5 10.4 0.00 0.00 0.00 75 1011.3
20260506124006 66 72 1.7 11.3 0.00 0.00 0.00 75 1011.1
20260506123532 66 53 2.6 11.3 0.00 0.00 0.00 76 1011.1
20260506123047 66 78 0.9 8.7 0.00 0.00 0.00 76 1011.1
20260506122523 66 104 1.7 10.4 0.00 0.00 0.00 76 1011.1
20260506122044 66 102 1.7 10.4 0.00 0.00 0.00 76 1011.0
20260506121504 66 93 0.9 7.0 0.00 0.00 0.00 76 1011.1
20260506121036 66 76 0.0 7.0 0.00 0.00 0.00 76 1011.0
20260506120519 66 60 0.0 3.5 0.00 0.00 0.00 77 1011.0
20260506120053 66 93 0.0 8.7 0.00 0.00 0.00 77 1010.9
20260506115535 66 49 1.7 8.7 0.00 0.00 0.00 76 1010.7
20260506115050 65 96 0.0 4.3 0.00 0.00 0.00 77 1010.8
20260506114539 65 67 0.0 5.2 0.00 0.00 0.00 77 1010.6
20260506114048 65 94 0.9 6.1 0.00 0.00 0.00 78 1010.7
20260506113511 65 62 0.9 6.1 0.00 0.00 0.00 77 1010.8
20260506113046 65 46 0.0 5.2 0.00 0.00 0.00 78 1010.7
20260506112511 65 88 0.0 6.1 0.00 0.00 0.00 78 1010.7
20260506112032 65 61 0.0 6.1 0.00 0.00 0.00 78 1010.6
20260506111510 65 104 0.0 6.1 0.00 0.00 0.00 79 1010.8
20260506111032 65 56 0.0 4.3 0.00 0.00 0.00 79 1010.7
20260506110554 65 62 0.0 1.7 0.00 0.00 0.00 79 1010.7
20260506110042 65 77 0.0 1.7 0.00 0.00 0.00 79 1010.7
20260506105554 64 87 0.0 3.5 0.00 0.00 0.00 79 1010.5
20260506105015 64 117 0.0 4.3 0.00 0.00 0.00 79 1010.6
20260506104611 64 75 0.0 4.3 0.00 0.00 0.00 79 1010.6
20260506104010 64 58 0.0 3.5 0.00 0.00 0.00 79 1010.4
20260506103533 65 152 0.0 4.3 0.00 0.00 0.00 79 1010.5
20260506103010 65 68 0.9 4.3 0.00 0.00 0.00 79 1010.4
20260506102533 65 60 0.0 0.9 0.00 0.00 0.00 79 1010.5
20260506102009 65 114 0.0 2.6 0.00 0.00 0.00 79 1010.3
20260506101531 65 155 0.0 3.5 0.00 0.00 0.00 79 1010.5
20260506101010 64 90 0.0 3.5 0.00 0.00 0.00 79 1010.5
20260506100531 65 55 0.0 0.9 0.00 0.00 0.00 79 1010.4
20260506100046 65 99 0.0 0.9 0.00 0.00 0.00 79 1010.5
20260506095522 65 103 0.0 1.7 0.00 0.00 0.00 79 1010.5
20260506095044 65 63 0.0 1.7 0.00 0.00 0.00 78 1010.5
20260506094534 65 89 0.0 0.9 0.00 0.00 0.00 78 1010.4
20260506094046 65 98 0.0 0.9 0.00 0.00 0.00 78 1010.4
20260506093524 65 69 0.0 3.5 0.00 0.00 0.00 78 1010.4
20260506093046 65 50 0.0 3.5 0.00 0.00 0.00 77 1010.3
20260506092532 65 103 0.0 2.6 0.00 0.00 0.00 77 1010.3
20260506092049 66 88 0.0 1.7 0.00 0.00 0.00 77 1010.3
20260506091533 66 127 0.0 2.6 0.00 0.00 0.00 76 1010.3
20260506091050 66 63 0.0 2.6 0.00 0.00 0.00 75 1010.3
20260506090518 66 108 0.0 5.2 0.00 0.00 0.00 75 1010.3
20260506090051 66 72 0.0 5.2 0.00 0.00 0.00 75 1010.3
20260506085513 66 65 0.0 4.3 0.00 0.00 0.00 75 1010.4
20260506085032 66 98 0.0 3.5 0.00 0.00 0.00 75 1010.4
20260506084550 66 91 0.0 3.5 0.00 0.00 0.00 75 1010.4
20260506084033 66 26 0.0 2.6 0.00 0.00 0.00 75 1010.4
20260506083546 66 56 0.0 5.2 0.00 0.00 0.00 75 1010.3
20260506083025 66 80 0.0 5.2 0.00 0.00 0.00 75 1010.4
20260506082545 66 88 0.0 6.1 0.00 0.00 0.00 75 1010.5
20260506082004 66 97 0.0 3.5 0.00 0.00 0.00 75 1010.4
20260506081526 66 56 0.0 6.1 0.00 0.00 0.00 75 1010.4
20260506081004 66 77 0.9 6.1 0.00 0.00 0.00 75 1010.4
20260506080522 66 52 0.0 6.1 0.00 0.00 0.00 75 1010.4
20260506080111 66 56 0.0 5.2 0.00 0.00 0.00 76 1010.5
20260506073014 66 58 0.0 2.6 0.00 0.00 0.00 74 1010.6
20260506072540 66 98 0.0 3.5 0.00 0.00 0.00 74 1010.6
20260506072056 66 54 0.0 3.5 0.00 0.00 0.00 74 1010.7
20260506071538 66 91 0.0 1.7 0.00 0.00 0.00 74 1010.6
20260506071056 66 124 0.0 1.7 0.00 0.00 0.00 73 1010.6
20260506070519 66 84 0.0 1.7 0.00 0.00 0.00 73 1010.6
20260506062512 67 96 0.0 3.5 0.00 0.00 0.00 71 1011.0
20260506062042 67 80 0.0 3.5 0.00 0.00 0.00 71 1011.1
20260506061523 67 63 0.0 3.5 0.00 0.00 0.00 71 1011.2
20260506061058 67 69 0.0 3.5 0.00 0.00 0.00 70 1011.1
20260506060543 67 61 0.0 2.6 0.00 0.00 0.00 70 1011.1
20260506051100 67 76 0.0 2.6 0.00 0.00 0.00 69 1011.4
20260506051003 67 76 0.0 2.6 0.00 0.00 0.00 69 1011.5
20260506050521 67 46 0.0 4.3 0.00 0.00 0.00 69 1011.5
20260506045041 67 105 0.0 2.6 0.00 0.00 0.00 69 1011.5
20260506044526 67 82 0.0 1.7 0.00 0.00 0.00 68 1011.5
20260506044047 67 10 0.0 1.7 0.00 0.00 0.00 68 1011.5
20260506043513 67 52 0.0 1.7 0.00 0.00 0.00 68 1011.6
20260506043054 67 82 0.0 2.6 0.00 0.00 0.00 68 1011.6
20260506042513 67 56 0.0 3.5 0.00 0.00 0.00 68 1011.6
20260506042045 67 87 0.0 3.5 0.00 0.00 0.00 67 1011.6
20260506041521 67 77 0.0 3.5 0.00 0.00 0.00 67 1011.6
20260506041100 67 79 0.0 3.5 0.00 0.00 0.00 67 1011.5
20260506041002 67 41 0.0 3.5 0.00 0.00 0.00 67 1011.5
20260506040540 67 51 0.0 4.3 0.00 0.00 0.00 67 1011.5
20260506040028 67 86 0.0 4.3 0.00 0.00 0.00 67 1011.5
20260506035524 67 54 0.0 2.6 0.00 0.00 0.00 67 1011.5
20260506035100 68 74 0.0 4.3 0.00 0.00 0.00 66 1011.6
20260506035002 68 74 0.0 4.3 0.00 0.00 0.00 66 1011.5
20260506034520 68 30 0.0 1.7 0.00 0.00 0.00 66 1011.5
20260506034041 68 53 0.0 1.7 0.00 0.00 0.00 66 1011.5
20260506033522 68 36 0.0 1.7 0.00 0.00 0.00 65 1011.4
20260506033048 68 49 0.0 1.7 0.00 0.00 0.00 65 1011.4
20260506032510 68 101 0.0 1.7 0.00 0.00 0.00 64 1011.4
20260506032046 69 153 0.0 1.7 0.00 0.00 0.00 63 1011.3
20260506031511 69 46 0.0 0.9 0.00 0.00 0.00 62 1011.4
20260506031046 69 94 0.0 1.7 0.00 0.00 0.00 62 1011.4
20260506030503 69 103 0.0 1.7 0.00 0.00 0.00 61 1011.4
20260506030044 70 67 0.0 1.7 0.00 0.00 0.00 61 1011.4
20260506025600 70 183 0.0 4.3 0.00 0.00 0.00 60 1011.4
20260506025504 70 59 0.0 4.3 0.00 0.00 0.00 60 1011.3
20260506025042 70 98 0.9 6.1 0.00 0.00 0.00 60 1011.3
20260506024600 70 62 0.0 6.1 0.00 0.00 0.00 59 1011.3
20260506024509 70 80 0.0 6.1 0.00 0.00 0.00 59 1011.4
20260506024024 70 67 0.0 3.5 0.00 0.00 0.00 59 1011.4
20260506023559 71 69 0.0 5.2 0.00 0.00 0.00 58 1011.4
20260506023022 71 73 0.9 5.2 0.00 0.00 0.00 58 1011.4
20260506022557 71 99 0.9 4.3 0.00 0.00 0.00 57 1011.4
20260506022017 71 25 0.0 2.6 0.00 0.00 0.00 57 1011.4
20260506021552 71 98 0.0 2.6 0.00 0.00 0.00 57 1011.4
20260506021018 71 66 0.0 3.5 0.00 0.00 0.00 56 1011.4
20260506020540 71 44 0.0 6.1 0.00 0.00 0.00 56 1011.4
20260506020059 72 122 0.0 6.1 0.00 0.00 0.00 55 1011.3
20260506020003 72 191 0.0 6.1 0.00 0.00 0.00 55 1011.4
20260506015540 72 73 0.0 4.3 0.00 0.00 0.00 55 1011.3
20260506015057 72 94 0.0 4.3 0.00 0.00 0.00 54 1011.2
20260506014539 72 89 0.0 3.5 0.00 0.00 0.00 54 1011.2
20260506014055 72 155 0.0 1.7 0.00 0.00 0.00 53 1011.2
20260506013537 73 101 0.0 2.6 0.00 0.00 0.00 53 1011.0
20260506013100 73 65 0.0 9.6 0.00 0.00 0.00 52 1011.1
20260506013002 73 52 0.0 9.6 0.00 0.00 0.00 52 1011.1
20260506012539 73 171 0.0 4.3 0.00 0.00 0.00 52 1011.0
20260506012053 73 75 0.9 4.3 0.00 0.00 0.00 51 1010.9
20260506011534 73 57 0.9 5.2 0.00 0.00 0.00 51 1010.9
20260506011053 73 141 0.9 5.2 0.00 0.00 0.00 51 1011.0
20260506010534 74 49 0.0 2.6 0.00 0.00 0.00 51 1010.9
20260506010055 74 100 0.0 3.5 0.00 0.00 0.00 50 1010.9
20260506005516 74 66 0.0 3.5 0.00 0.00 0.00 51 1010.8
20260506005055 74 20 0.0 2.6 0.00 0.00 0.00 51 1010.7
20260506004519 74 97 0.9 4.3 0.00 0.00 0.00 50 1010.7
20260506004055 74 103 0.0 1.7 0.00 0.00 0.00 51 1010.7
20260506003515 75 77 0.0 1.7 0.00 0.00 0.00 50 1010.7
20260506003057 75 94 0.0 4.3 0.00 0.00 0.00 50 1010.7
20260506002517 75 100 0.0 4.3 0.00 0.00 0.00 48 1010.6
20260506002036 75 81 0.0 1.7 0.00 0.00 0.00 47 1010.5
20260506001516 76 63 0.0 2.6 0.00 0.00 0.00 46 1010.4
20260506001046 76 101 0.0 4.3 0.00 0.00 0.00 45 1010.5
20260506000534 76 89 0.0 7.8 0.00 0.00 0.00 45 1010.4
20260506000052 76 58 0.9 7.8 0.00 0.00 0.00 45 1010.3
20260505235509 76 60 0.0 3.5 0.00 0.00 0.00 45 1010.3
20260505235045 76 128 0.0 3.5 0.00 0.00 0.00 45 1010.3
20260505234539 77 103 0.0 2.6 0.00 0.00 0.00 44 1010.1
20260505234008 77 89 0.0 4.3 0.00 0.00 0.00 45 1010.2
20260505233529 77 131 0.9 4.3 0.00 0.00 0.00 44 1010.1
20260505233007 77 61 0.0 8.7 0.00 0.00 0.00 44 1010.1
20260505232535 78 68 0.9 8.7 0.00 0.00 0.00 43 1010.2
20260505232052 78 70 0.0 7.0 0.00 0.00 0.00 43 1010.1
20260505231522 78 72 0.0 7.0 0.00 0.00 0.00 43 1010.1
20260505231049 78 89 0.9 7.0 0.00 0.00 0.00 43 1010.0
20260505230523 78 66 0.9 7.0 0.00 0.00 0.00 43 1010.0
20260505230048 79 75 0.9 13.0 0.00 0.00 0.00 42 1010.0
20260505225508 79 66 0.9 14.8 0.00 0.00 0.00 42 1009.9
20260505225040 79 34 2.6 14.8 0.00 0.00 0.00 41 1010.0
20260505224525 79 44 1.7 12.2 0.00 0.00 0.00 42 1010.0
20260505224053 79 36 0.0 12.2 0.00 0.00 0.00 42 1009.9
20260505223511 80 59 2.6 11.3 0.00 0.00 0.00 40 1009.9
20260505223104 80 66 2.6 16.5 0.00 0.00 0.00 40 1009.9
20260505222510 80 61 4.3 12.2 0.00 0.00 0.00 39 1009.8